FENGYUN 1C DEB, 31295

Orbit data source: Space-Track

FENGYUN 1C DEB, 31295 is space debris in SSO originally from a launch on Mon, 10 May 1999 UTC launched from the Taiyaun Space Center, China (TSC). Fengyun 1C debris stems from the Chinese weather satellite Fengyun-1C, which was intentionally destroyed by a Chinese anti-satellite missile in 2007. This event dramatically increased the amount of space debris, with thousands of trackable fragments posing hazards to satellites and human spaceflight. The Fengyun 1C debris cloud has become a focal point in discussions about space sustainability and the need for international regulations to prevent the creation of new debris.

Loading next visibility...
Identifier
31295, 1999-025BPD
Orbit
SSO
Country
Flag of CNCN / PRC
Related business
Manufacturer
Unknown
Mission
Spacecraft
Bus & Motor
Unknown
Mass
Unknown
Launch date (UTC)
1999-05-10 (27 years ago)
Launch vehicle
Unknown
Launch site
Taiyaun Space Center, China (TSC)
Object type
Payload
Rocket body
Debris
Shape & HBR
Unknown shape, 0.1 m
Radar Cross Section
Small (<0.1 m²)

Expand to show TLE details & history
Last TLE update: 22 hours ago

TLE from 22 hours ago
0 FENGYUN 1C DEB
1 31295U 99025BPD 25354.26854837 -.00000122  00000-0 -58394-4 0  9997
2 31295  98.3164 178.4897 0077097 229.8759 129.5634 13.96833806956084
Epoch: 2025-12-20T06:26Z
TLE epoch observation values (Epoch: 2025-12-20T06:26:42.579Z)
Latitude
0.00005°
Longitude
-7.2855°
Altitude
943.7 km
Speed
7.362 km/s
True Right ascension
11h 53m 57s
True Declination
0° 00' 00"
Sunlit
Object was in daylight at epoch
Visualization orbit readout
Latitude
Unknown
Longitude
Unknown
Altitude
Unknown
Speed
Unknown
Apparent Right ascension
Unknown
Apparent Declination
Unknown
Sunlit
N/A
Visualization observer readout
Local Sidereal Time
03:39:45
Azimuth
Unknown
Elevation
Unknown
Doppler factor
Unknown
Orbital elements
Apogee altitude
958.078 km
Perigee altitude
845.824 km
Semi-major axis
7,280.088 km
Eccentricity
0.00771
Inclination
98.3164°
RAAN
178.4897°
Arg. of periapsis
229.8759°
True anomaly
130.24031°
Mean anomaly
129.5634°
Eccentric anomaly
129.90227°
Mean motion
3.49412 °/min
Orbital period
103.03 mins
BSTAR
-0.000058394
Loading maneuver chart data...
Computing Atmospheric mass density...

Documentation

Showing up to 5 results
|